Simultaneous Nadir Overpasses (SNOs) Predictions

Prediction of SNOs between AQUA and METOP-B Satellite Orbit:

Table of predicted SNOs for the next 14.0 days since TLE Epoch: 11/11/2017
Index Date (AQUA) Time (AQUA) Lat,Lon (AQUA) SZA (AQUA ) Date (METOP-B) Time (METOP-B) Lat,Lon (METOP-B) SZA (METOP-B ) Distance(km) Time Diff (sec)
1 11/12/2017 01:11:25 -73.16, -22.34 89.24 11/12/2017 01:10:18 -73.15, -24.84 89.22 80.55 67
2 11/12/2017 02:01:04 73.79, 143.98 91.41 11/12/2017 02:00:45 73.81, 143.99 91.44 2.86 19
3 11/12/2017 02:50:32 -73.89, -48.60 88.48 11/12/2017 02:51:25 -73.88, -48.52 88.49 2.72 53
4 11/14/2017 20:45:46 -73.39, 43.62 88.26 11/14/2017 20:44:36 -73.36, 42.03 88.28 50.56 70
5 11/14/2017 21:35:21 73.81,-149.64 92.18 11/14/2017 21:35:07 73.82,-149.58 92.18 2.06 14
6 11/14/2017 22:24:48 -73.85, 17.90 87.78 11/14/2017 22:25:47 -73.89, 17.92 87.74 3.71 59
7 11/17/2017 16:20:07 -73.63, 109.54 87.32 11/17/2017 16:18:54 -73.57, 108.92 87.37 20.95 73
8 11/17/2017 17:09:36 73.80, -83.17 92.86 11/17/2017 17:09:28 73.82, -83.16 92.89 2.86 8
9 11/17/2017 17:59:04 -73.89, 84.26 87.04 11/17/2017 18:00:08 -73.90, 84.34 87.04 2.61 64
10 11/20/2017 11:54:24 -73.73, 175.77 86.56 11/20/2017 11:53:12 -73.72, 175.69 86.57 2.68 72
11 11/20/2017 12:43:52 73.80, -16.73 93.51 11/20/2017 12:43:50 73.82, -16.75 93.54 3.22 2
12 11/20/2017 13:33:20 -73.88, 150.71 86.39 11/20/2017 13:34:30 -73.90, 150.77 86.38 2.67 70
13 11/23/2017 07:28:40 -73.74,-117.81 85.95 11/23/2017 07:27:34 -73.73,-117.90 85.96 3.02 66
14 11/23/2017 08:18:08 73.81, 49.68 94.13 11/23/2017 08:18:12 73.82, 49.66 94.15 2.00 4




NCC Satellite Simultaneous Nadir Overpasses (SNOs) Prediction Service
